#timestamp,LO_Frequency,Hit 
1499529615.7,286041157.0,N
1499529635.6,286041156.9,N
1499529655.4,286041159.4,N
1499529675.2,286041158.5,N
1499529695.1,286041158.6,N
1499529696.0,286041158.6,N
1499529715.8,286041158.5,N
1499529735.7,286041159.1,N
1499529755.5,286041159.3,N
1499529775.3,286041159.4,N
1499529795.2,286041156.5,N
1499529815.0,286041159.4,N
1499529815.9,286041159.4,N
1499529835.8,286041158.5,N
1499529855.6,286041160.6,N
1499529875.4,286041160.7,N
1499529895.3,286041161.1,N
1499529915.1,286041158.4,N
1499529935.8,286041158.2,N
1499529955.7,286041158.6,N
1499529975.5,286041158.9,N
1499529995.4,286041158.2,N
1499530015.2,286041159.1,N
1499530035.0,286041159.4,N
1499530035.9,286041159.4,N
1499530055.8,286041159.1,N
1499530075.6,286041159.3,N
1499530095.4,286041159.1,N
1499530115.3,286041159.5,N
1499530135.1,286041158.3,N
1499530155.9,286041158.5,N
1499530175.7,286041161.0,N
1499530195.5,286041158.0,N
1499530215.4,286041158.4,N
1499530235.2,286041160.5,N
1499530255.0,286041158.5,N
1499530255.9,286041158.5,N
1499530275.8,286035529.1,N
1499530295.6,286041158.6,N
1499530315.5,286041158.7,N
1499530335.3,286041158.1,N
1499530355.1,286041158.1,N
1499530375.9,286041160.2,N
1499530395.7,286041160.2,N
1499530415.5,286041158.5,N
1499530435.4,286041160.3,N
1499530455.2,286041160.4,N
1499530475.1,286041160.3,N
1499530476.0,286041160.3,N
1499530495.8,286041159.9,N
1499530515.6,286041160.4,N
1499530535.5,286041158.0,N
1499530555.3,286041160.5,N
1499530575.1,286041160.5,N
1499530595.9,286041160.5,N
1499530615.7,286041159.8,N
1499530635.6,286041159.6,N
1499530655.4,286041159.8,N
1499530675.2,286041160.1,N
1499530695.1,286041160.4,N
1499530696.0,286041160.4,N
1499530715.8,286041160.5,N
1499530735.6,286041160.8,N
1499530755.5,286041160.8,N
1499530775.3,286041160.6,N
1499530795.2,286041160.1,N
1499530815.9,286041160.4,N
1499530835.7,286041160.7,N
1499530855.6,286041159.0,N
1499530875.4,286041159.1,N
1499530895.2,286041159.5,N
1499530915.1,286041156.9,N
1499530916.0,286041156.9,N
1499530935.8,286041156.6,N
1499530955.7,286041159.1,N
1499530975.5,286041156.9,N
1499530995.3,286041157.2,N
1499531015.2,286041154.8,N
1499531035.0,286041155.1,N
1499531035.9,286041155.1,Y
1499531055.8,286047025.9,N
1499531075.6,286047025.6,N
1499531095.4,286047026.2,N
1499531115.3,286047026.3,N
1499531135.1,286047026.7,N
1499531155.8,286047026.5,N
1499531175.7,286047026.5,N
1499531195.5,286047026.4,N
1499531215.4,286047023.7,N
1499531235.2,286047024.2,N
1499531255.0,286047023.8,N
1499531255.9,286047023.8,N
1499531275.8,286047024.1,N
1499531295.6,286047023.9,N
1499531315.4,286047037.5,N
1499531335.3,286047024.6,N
1499531355.1,286047024.6,N
1499531375.9,286047025.0,N
1499531395.7,286047024.9,N
1499531415.5,286047022.3,N
1499531435.4,286047022.5,N
1499531455.2,286047022.6,N
1499531475.0,286047022.2,N
1499531475.9,286047022.2,N
1499531495.8,286047022.8,N
1499531515.6,286047025.2,N
1499531535.5,286047025.1,N
1499531555.3,286047022.7,N
1499531575.1,286047022.1,N
1499531595.9,286047022.6,N
1499531615.7,286047025.2,N
1499531635.5,286047025.2,N
1499531655.4,286047022.6,N
1499531675.2,286047022.6,N
1499531695.1,286047023.2,N
1499531696.0,286047023.2,N
1499531715.8,286047023.1,N
1499531735.6,286047021.5,N
1499531755.5,286047021.1,N
1499531775.3,286047021.8,N
1499531795.2,286047023.6,N
1499531815.9,286047020.7,N
1499531835.7,286047021.1,N
1499531855.6,286047020.8,N
1499531875.4,286047020.7,N
1499531895.2,286047019.2,N
1499531915.1,286047019.7,N
1499531916.0,286047019.7,N
1499531935.8,286047022.0,N
1499531955.7,286047021.9,N
1499531975.5,286047018.9,N
1499531995.3,286047019.0,N
1499532015.2,286047019.6,N
1499532035.0,286047019.7,N
1499532035.9,286047019.7,N
1499532055.7,286047019.2,N
1499532075.6,286047019.1,N
1499532095.4,286047019.8,N
1499532115.3,286047019.7,N
1499532135.1,286047020.2,N
1499532136.0,286047020.2,N
1499532155.8,286047019.5,N
1499532175.7,286047019.9,N
1499532195.5,286047020.2,N
1499532215.4,286047017.9,N
1499532235.2,286047017.3,N
1499532255.0,286047017.3,N
1499532255.9,286047042.9,N
1499532275.8,286047017.4,N
1499532295.6,286047017.3,N
1499532315.5,286047019.7,N
1499532335.3,286047020.3,N
1499532355.1,286047017.6,N
1499532375.9,286047017.5,N
1499532395.7,286047017.3,N
1499532415.5,286047017.3,N
1499532435.4,286047019.9,N
1499532455.2,286047017.4,N
1499532475.1,286047020.4,N
1499532476.0,286047020.4,N
1499532495.8,286047018.1,N
1499532515.6,286047017.9,N
1499532535.5,286047018.5,N
1499532555.3,286047015.8,N
1499532575.1,286047016.1,N
1499532595.9,286047016.1,N
1499532615.7,286047015.8,N
1499532635.6,286047015.8,N
1499532655.4,286047016.2,N
1499532675.2,286047018.3,N
1499532695.1,286047018.1,N
1499532696.0,286047018.1,N
1499532715.8,286047015.8,N
1499532735.6,286047018.3,N
1499532755.5,286047018.6,N
1499532775.3,286047016.1,N
1499532795.2,286047015.8,N
1499532815.9,286047016.1,N
1499532835.7,286047018.8,N
1499532855.6,286047018.3,N
1499532875.4,286047018.5,N
1499532895.2,286047018.6,N
1499532915.1,286047017.6,N
1499532916.0,286047017.6,N
1499532935.8,286047020.4,N
1499532955.7,286047019.9,N
1499532975.5,286047020.2,N
1499532995.3,286047019.9,N
1499533015.2,286047020.2,N
1499533035.0,286047019.8,N
1499533035.9,286047019.8,N
1499533055.8,286047020.0,N
1499533075.6,286047019.9,N
1499533095.4,286047019.9,N
1499533115.3,286047019.9,N
1499533135.1,286047020.2,N
1499533136.0,286047020.2,N
1499533155.8,286047020.1,N
1499533175.7,286047020.1,N
1499533195.5,286047019.6,N
